Time_in_sec,gx,gy,gz
1323444722.14853120,-0.00984769,-0.00813801,-0.99991839
1323444722.20069599,-0.00992419,-0.00823342,-0.99991686
1323444722.24988961,-0.00987313,-0.00816986,-0.99991788
1323444722.30456519,-0.00966608,-0.00779069,-0.99992293
1323444722.34852791,-0.00952768,-0.00794796,-0.99992302
1323444722.40952969,-0.00938169,-0.00777635,-0.99992575
1323444722.44852591,-0.00915619,-0.00772129,-0.99992827
1323444722.49827194,-0.00934328,-0.00791144,-0.99992505
1323444722.54993725,-0.00818190,-0.00844626,-0.99993086
1323444722.60165191,-0.00832201,-0.00842929,-0.99992984
1323444722.64860249,-0.00819710,-0.00834862,-0.99993155
1323444722.70278144,-0.00821941,-0.00825695,-0.99993213
1323444722.74870944,-0.00835511,-0.00825942,-0.99993098
1323444722.80062795,-0.00783926,-0.00838912,-0.99993408
1323444722.85005331,-0.00771702,-0.00848592,-0.99993422
1323444722.90054321,-0.00786236,-0.00840656,-0.99993375
1323444722.94951105,-0.00768692,-0.00843723,-0.99993486
1323444723.00154233,-0.00767510,-0.00822380,-0.99993673
1323444723.04863572,-0.00683392,-0.00812900,-0.99994361
1323444723.10059357,-0.00694257,-0.00811575,-0.99994297
1323444723.14902377,-0.00682039,-0.00817114,-0.99994336
1323444723.20053482,-0.00668785,-0.00793795,-0.99994613
1323444723.24851823,-0.00677044,-0.00798921,-0.99994517
1323444723.30056286,-0.00650122,-0.00823864,-0.99994493
1323444723.34961295,-0.00645947,-0.00828026,-0.99994485
1323444723.40051770,-0.00654447,-0.00814901,-0.99994538
1323444723.44972420,-0.00654932,-0.00845205,-0.99994283
1323444723.50051403,-0.00664064,-0.00839098,-0.99994275
1323444723.54851913,-0.00646806,-0.00828878,-0.99994473
1323444723.60052061,-0.00666551,-0.00814350,-0.99994463
1323444723.64852834,-0.00665859,-0.00809922,-0.99994503
1323444723.70165062,-0.00644890,-0.00799591,-0.99994724
1323444723.74960232,-0.00635962,-0.00788930,-0.99994866
1323444723.80055833,-0.00571604,-0.00821647,-0.99994991
1323444723.84957051,-0.00572947,-0.00809916,-0.99995079
1323444723.89783955,-0.00562452,-0.00819978,-0.99995056
1323444723.94852161,-0.00551047,-0.00812257,-0.99995183
1323444724.00551105,-0.00547626,-0.00827686,-0.99995075
1323444724.04851127,-0.00495017,-0.00838997,-0.99995255
1323444724.10064340,-0.00475581,-0.00831823,-0.99995409
1323444724.14959550,-0.00483521,-0.00809292,-0.99995556
1323444724.20053792,-0.00467425,-0.00806747,-0.99995653
1323444724.25256085,-0.00468572,-0.00814291,-0.99995587
1323444724.29769754,-0.00388680,-0.00813828,-0.99995933
1323444724.34851265,-0.00397238,-0.00823621,-0.99995819
1323444724.40556359,-0.00380965,-0.00828560,-0.99995842
1323444724.45255470,-0.00399843,-0.00828237,-0.99995771
1323444724.50157261,-0.00400804,-0.00836816,-0.99995695
1323444724.54962969,-0.00366420,-0.00856961,-0.99995657
1323444724.60051727,-0.00380712,-0.00847302,-0.99995686
1323444724.64953876,-0.00369315,-0.00838133,-0.99995806
1323444724.69998908,-0.00363750,-0.00823793,-0.99995945
1323444724.74866605,-0.00385806,-0.00818229,-0.99995908
1323444724.80052114,-0.00342653,-0.00800451,-0.99996209
1323444724.84853458,-0.00349953,-0.00796806,-0.99996213
1323444724.90052342,-0.00371490,-0.00795003,-0.99996150
1323444724.94956422,-0.00376082,-0.00769064,-0.99996335
1323444725.00155830,-0.00387618,-0.00781726,-0.99996193
1323444725.04954410,-0.00406158,-0.00768610,-0.99996221
1323444725.09840012,-0.00410588,-0.00760739,-0.99996263
1323444725.14954066,-0.00393160,-0.00753113,-0.99996391
1323444725.20552206,-0.00409291,-0.00760918,-0.99996267
1323444725.24849653,-0.00419444,-0.00761608,-0.99996220
1323444725.30054522,-0.00481129,-0.00758667,-0.99995965
1323444725.34854221,-0.00508174,-0.00747764,-0.99995913
1323444725.40157008,-0.00520725,-0.00732987,-0.99995958
1323444725.44853210,-0.00532735,-0.00726662,-0.99995941
1323444725.50048661,-0.00516007,-0.00737385,-0.99995950
1323444725.54852772,-0.00502582,-0.00741511,-0.99995988
1323444725.60554361,-0.00520553,-0.00725916,-0.99996010
1323444725.64884305,-0.00514710,-0.00716592,-0.99996108
1323444725.70166278,-0.00500781,-0.00697763,-0.99996312
1323444725.75042748,-0.00482741,-0.00699452,-0.99996389
1323444725.80063081,-0.00511110,-0.00694916,-0.99996279
1323444725.84888577,-0.00539662,-0.00688085,-0.99996176
1323444725.89814258,-0.00541609,-0.00700107,-0.99996082
1323444725.94948053,-0.00562180,-0.00705756,-0.99995929
1323444726.00158572,-0.00536165,-0.00707927,-0.99996057
1323444726.04851556,-0.00512978,-0.00647139,-0.99996590
1323444726.10164046,-0.00548474,-0.00643779,-0.99996424
1323444726.14959526,-0.00534971,-0.00616923,-0.99996666
1323444726.20051146,-0.00567761,-0.00635526,-0.99996369
1323444726.24953318,-0.00566454,-0.00619031,-0.99996480
1323444726.30357265,-0.00534441,-0.00591394,-0.99996823
1323444726.34959507,-0.00546861,-0.00602075,-0.99996692
1323444726.40052414,-0.00551940,-0.00580637,-0.99996791
1323444726.44952273,-0.00573334,-0.00558639,-0.99996796
1323444726.50051475,-0.00572045,-0.00569237,-0.99996744
1323444726.55004168,-0.00541154,-0.00549924,-0.99997024
1323444726.60157204,-0.00567922,-0.00544862,-0.99996903
1323444726.64858961,-0.00587204,-0.00523891,-0.99996904
1323444726.69789720,-0.00603059,-0.00556001,-0.99996636
1323444726.74853969,-0.00589660,-0.00566606,-0.99996656
1323444726.80064082,-0.00587457,-0.00603832,-0.99996451
1323444726.84859180,-0.00585562,-0.00610626,-0.99996421
1323444726.90165806,-0.00565626,-0.00605072,-0.99996570
1323444726.95023894,-0.00545881,-0.00620772,-0.99996583
1323444727.00051308,-0.00555192,-0.00614164,-0.99996573
1323444727.04854035,-0.00529840,-0.00636545,-0.99996570
1323444727.09771633,-0.00537606,-0.00626168,-0.99996594
1323444727.14963341,-0.00547969,-0.00626364,-0.99996537
1323444727.20055079,-0.00554308,-0.00631279,-0.99996471
1323444727.24970818,-0.00568907,-0.00603408,-0.99996561
1323444727.30162954,-0.00557659,-0.00595845,-0.99996670
1323444727.34974909,-0.00569350,-0.00603009,-0.99996561
1323444727.40053058,-0.00585794,-0.00581354,-0.99996594
1323444727.44851160,-0.00592005,-0.00596679,-0.99996467
1323444727.50051761,-0.00607075,-0.00601486,-0.99996348
1323444727.54868627,-0.00635866,-0.00603000,-0.99996160
1323444727.60050917,-0.00638319,-0.00599093,-0.99996168
1323444727.64872861,-0.00636550,-0.00584627,-0.99996265
1323444727.70051646,-0.00645528,-0.00569140,-0.99996297
1323444727.74853086,-0.00639549,-0.00580139,-0.99996272
1323444727.80052066,-0.00656441,-0.00606014,-0.99996009
1323444727.84852362,-0.00660601,-0.00617789,-0.99995910
1323444727.90052581,-0.00656598,-0.00588250,-0.99996114
1323444727.94853997,-0.00638929,-0.00602621,-0.99996143
1323444728.00052762,-0.00629169,-0.00603305,-0.99996201
1323444728.04947376,-0.00672530,-0.00590002,-0.99995998
1323444728.10165310,-0.00666787,-0.00620922,-0.99995849
1323444728.14956164,-0.00654405,-0.00624298,-0.99995910
1323444728.20164466,-0.00652656,-0.00633102,-0.99995866
1323444728.24950480,-0.00653848,-0.00637964,-0.99995827
1323444728.30231786,-0.00636564,-0.00648008,-0.99995874
1323444728.34855008,-0.00641961,-0.00641591,-0.99995881
1323444728.40153098,-0.00663172,-0.00653978,-0.99995662
1323444728.44859123,-0.00663304,-0.00652942,-0.99995668
1323444728.49820113,-0.00663500,-0.00647393,-0.99995703
1323444728.55002427,-0.00616762,-0.00623817,-0.99996152
1323444728.60061479,-0.00610959,-0.00634728,-0.99996119
1323444728.64993119,-0.00621105,-0.00613812,-0.99996187
1323444728.70306253,-0.00616855,-0.00584194,-0.99996391
1323444728.74850202,-0.00618858,-0.00575756,-0.99996428
1323444728.80116010,-0.00607694,-0.00596284,-0.99996376
1323444728.84052181,-0.00597591,-0.00569860,-0.99996591
1323444728.90063882,-0.00593541,-0.00574041,-0.99996591
1323444728.94993734,-0.00596788,-0.00558468,-0.99996660
1323444729.00059962,-0.00588330,-0.00560209,-0.99996700
1323444729.04855442,-0.00605352,-0.00604932,-0.99996338
1323444729.09803104,-0.00619051,-0.00586223,-0.99996366
1323444729.14863992,-0.00629084,-0.00596475,-0.99996242
1323444729.20554018,-0.00616800,-0.00603530,-0.99996276
1323444729.24852800,-0.00599185,-0.00584992,-0.99996494
1323444729.30164146,-0.00672014,-0.00574437,-0.99996092
1323444729.35016489,-0.00694861,-0.00556629,-0.99996037
1323444729.40166235,-0.00702182,-0.00570830,-0.99995905
1323444729.44944930,-0.00708468,-0.00559821,-0.99995923
1323444729.50049043,-0.00712347,-0.00539295,-0.99996009
1323444729.54850507,-0.00737819,-0.00602149,-0.99995465
1323444729.60055327,-0.00723923,-0.00602580,-0.99995564
1323444729.64853835,-0.00723794,-0.00603455,-0.99995560
1323444729.68970251,-0.00730287,-0.00589049,-0.99995598
1323444729.75094032,-0.00704267,-0.00603030,-0.99995702
1323444729.80063915,-0.00650305,-0.00598497,-0.99996094
1323444729.84870768,-0.00624202,-0.00593468,-0.99996291
1323444729.89774179,-0.00625181,-0.00603127,-0.99996227
1323444729.94928527,-0.00639382,-0.00597641,-0.99996170
1323444730.00609922,-0.00636432,-0.00607761,-0.99996128
1323444730.04861355,-0.00642281,-0.00633282,-0.99995932
1323444730.10165024,-0.00649948,-0.00613199,-0.99996008
1323444730.14976788,-0.00653457,-0.00612528,-0.99995989
1323444730.20053220,-0.00664437,-0.00621409,-0.99995862
1323444730.25001287,-0.00690546,-0.00631512,-0.99995622
1323444730.30343986,-0.00747356,-0.00625949,-0.99995248
1323444730.34963703,-0.00755836,-0.00628954,-0.99995166
1323444730.40052938,-0.00779720,-0.00635906,-0.99994938
1323444730.44891286,-0.00776147,-0.00632324,-0.99994989
1323444730.50150657,-0.00786123,-0.00619142,-0.99994993
1323444730.54851604,-0.00856222,-0.00611932,-0.99994462
1323444730.60156703,-0.00860499,-0.00604847,-0.99994468
1323444730.64855886,-0.00877644,-0.00616114,-0.99994251
1323444730.69853091,-0.00874566,-0.00597673,-0.99994389
1323444730.74912786,-0.00847547,-0.00600994,-0.99994602
1323444730.80050039,-0.00947340,-0.00608268,-0.99993663
1323444730.84052730,-0.00952675,-0.00612266,-0.99993587
1323444730.90052342,-0.00956841,-0.00604672,-0.99993594
1323444730.94970918,-0.00959980,-0.00619340,-0.99993474
1323444731.00048780,-0.00959675,-0.00619496,-0.99993476
1323444731.04938817,-0.01014093,-0.00588661,-0.99993125
1323444731.10051513,-0.01011098,-0.00613079,-0.99993009
1323444731.14952087,-0.01010047,-0.00595595,-0.99993125
1323444731.20048666,-0.01026716,-0.00591022,-0.99992982
1323444731.24887276,-0.01043251,-0.00575185,-0.99992904
1323444731.30048680,-0.01041383,-0.00599214,-0.99992782
1323444731.34897947,-0.01025400,-0.00583856,-0.99993038
1323444731.40051675,-0.01036305,-0.00588024,-0.99992901
1323444731.44956040,-0.01019309,-0.00598515,-0.99993014
1323444731.50454140,-0.01042056,-0.00609394,-0.99992714
1323444731.54878926,-0.01004852,-0.00630995,-0.99992960
1323444731.60554123,-0.01009748,-0.00658673,-0.99992733
1323444731.64853740,-0.01015252,-0.00652200,-0.99992719
1323444731.70156026,-0.01033809,-0.00633917,-0.99992647
1323444731.74973011,-0.01018677,-0.00614025,-0.99992926
1323444731.80055046,-0.00989873,-0.00573936,-0.99993454
1323444731.84948421,-0.00979822,-0.00583880,-0.99993495
1323444731.90206933,-0.00976969,-0.00585440,-0.99993514
1323444731.94854736,-0.00958578,-0.00580499,-0.99993721
1323444732.00051332,-0.00983874,-0.00558365,-0.99993601
1323444732.04873943,-0.00953402,-0.00588575,-0.99993723
1323444732.10165048,-0.00940438,-0.00585561,-0.99993863
1323444732.15003467,-0.00918249,-0.00576053,-0.99994125
1323444732.20054293,-0.00953746,-0.00575506,-0.99993796
1323444732.24865079,-0.00965987,-0.00569046,-0.99993715
1323444732.29804420,-0.00926471,-0.00576557,-0.99994046
1323444732.34862757,-0.00904370,-0.00571731,-0.99994276
1323444732.40556192,-0.00899088,-0.00588471,-0.99994227
1323444732.44478273,-0.00894787,-0.00583031,-0.99994297
1323444732.50051928,-0.00886532,-0.00559135,-0.99994507
1323444732.54854083,-0.00818105,-0.00546107,-0.99995162
1323444732.60165071,-0.00835380,-0.00556215,-0.99994964
1323444732.64849257,-0.00835033,-0.00550782,-0.99994997
1323444732.70051527,-0.00820015,-0.00538729,-0.99995187
1323444732.74855757,-0.00820711,-0.00528388,-0.99995236
1323444732.80064249,-0.00812611,-0.00575786,-0.99995041
1323444732.84853601,-0.00797657,-0.00600141,-0.99995018
1323444732.90164495,-0.00802323,-0.00592141,-0.99995028
1323444732.94975924,-0.00804363,-0.00575275,-0.99995110
1323444733.00150704,-0.00811961,-0.00557655,-0.99995149
1323444733.04956031,-0.00835059,-0.00572048,-0.99994877
1323444733.09764028,-0.00829902,-0.00553167,-0.99995026
1323444733.14925504,-0.00837306,-0.00539274,-0.99995040
1323444733.20155263,-0.00850707,-0.00537729,-0.99994936
1323444733.24877954,-0.00835779,-0.00515687,-0.99995178
1323444733.30081272,-0.00732844,-0.00529601,-0.99995912
1323444733.34961724,-0.00734329,-0.00537186,-0.99995861
1323444733.40052533,-0.00751011,-0.00508195,-0.99995889
1323444733.44886732,-0.00753179,-0.00491536,-0.99995955
1323444733.50448465,-0.00739629,-0.00486916,-0.99996079
1323444733.54909110,-0.00666924,-0.00466402,-0.99996688
1323444733.60053921,-0.00695822,-0.00440668,-0.99996608
1323444733.64851189,-0.00692799,-0.00441583,-0.99996625
1323444733.68892860,-0.00679797,-0.00464328,-0.99996611
1323444733.74988151,-0.00718601,-0.00473385,-0.99996298
1323444733.80154228,-0.00664800,-0.00437089,-0.99996835
1323444733.84954023,-0.00675686,-0.00425929,-0.99996810
1323444733.90051246,-0.00693323,-0.00436970,-0.99996642
1323444733.94868660,-0.00683483,-0.00456468,-0.99996622
1323444734.00159550,-0.00689591,-0.00453555,-0.99996594
1323444734.04849339,-0.00634917,-0.00449241,-0.99996975
1323444734.10053277,-0.00643992,-0.00442043,-0.99996949
1323444734.14951634,-0.00669508,-0.00449923,-0.99996747
1323444734.20049810,-0.00685005,-0.00465778,-0.99996569
1323444734.24854541,-0.00701014,-0.00438377,-0.99996582
1323444734.29823565,-0.00692098,-0.00487744,-0.99996415
1323444734.34852457,-0.00712450,-0.00491732,-0.99996253
1323444734.40104795,-0.00718780,-0.00488157,-0.99996225
1323444734.44850254,-0.00706348,-0.00496868,-0.99996271
1323444734.50054383,-0.00708058,-0.00470522,-0.99996386
1323444734.54850650,-0.00733276,-0.00532973,-0.99995891
1323444734.60153890,-0.00711463,-0.00531960,-0.99996054
1323444734.64864731,-0.00718634,-0.00519246,-0.99996070
1323444734.68948770,-0.00729601,-0.00505871,-0.99996059
1323444734.74851513,-0.00707044,-0.00500000,-0.99996250
1323444734.80152154,-0.00699248,-0.00482138,-0.99996393
1323444734.84852910,-0.00698692,-0.00457947,-0.99996511
1323444734.90165925,-0.00705389,-0.00446251,-0.99996516
1323444734.94151306,-0.00732158,-0.00436352,-0.99996368
1323444735.00054550,-0.00746705,-0.00452584,-0.99996188
1323444735.04854870,-0.00770202,-0.00443494,-0.99996050
1323444735.09795666,-0.00765199,-0.00416637,-0.99996204
1323444735.14916205,-0.00755297,-0.00426728,-0.99996237
1323444735.20152950,-0.00765053,-0.00406935,-0.99996245
1323444735.24851584,-0.00792301,-0.00455572,-0.99995823
1323444735.30053854,-0.00813707,-0.00452636,-0.99995665
1323444735.34852171,-0.00826103,-0.00447619,-0.99995586
1323444735.40165329,-0.00826545,-0.00442398,-0.99995605
1323444735.44855952,-0.00830113,-0.00429996,-0.99995630
1323444735.50394011,-0.00817062,-0.00433501,-0.99995722
1323444735.54851961,-0.00839045,-0.00436519,-0.99995527
1323444735.60052347,-0.00870529,-0.00401537,-0.99995405
1323444735.64078498,-0.00849329,-0.00391335,-0.99995627
1323444735.70163536,-0.00855864,-0.00373608,-0.99995639
1323444735.74982691,-0.00832005,-0.00473694,-0.99995417
1323444735.80155134,-0.00842716,-0.00471234,-0.99995339
1323444735.84850168,-0.00865199,-0.00473601,-0.99995136
1323444735.89780617,-0.00880799,-0.00450627,-0.99995106
1323444735.94856930,-0.00859321,-0.00442540,-0.99995329
1323444736.00051379,-0.00866916,-0.00429781,-0.99995319
1323444736.04857421,-0.00877956,-0.00429808,-0.99995222
1323444736.10056114,-0.00899456,-0.00395645,-0.99995172
1323444736.14964390,-0.00912250,-0.00403754,-0.99995024
1323444736.20051885,-0.00913918,-0.00387637,-0.99995072
1323444736.24874687,-0.00800803,-0.00501703,-0.99995535
1323444736.29777765,-0.00804348,-0.00490431,-0.99995562
1323444736.34855795,-0.00829491,-0.00476585,-0.99995424
1323444736.40057182,-0.00824424,-0.00470967,-0.99995492
1323444736.44851875,-0.00823680,-0.00453476,-0.99995579
1323444736.50053048,-0.00806715,-0.00448928,-0.99995738
1323444736.54850650,-0.00794948,-0.00482326,-0.99995677
1323444736.60136557,-0.00791157,-0.00468644,-0.99995772
1323444736.64850402,-0.00785962,-0.00480640,-0.99995756
1323444736.68950844,-0.00808660,-0.00460965,-0.99995668
1323444736.74852180,-0.00822554,-0.00485980,-0.99995436
1323444736.80951548,-0.00772828,-0.00441610,-0.99996039
1323444736.84853315,-0.00771862,-0.00440754,-0.99996050
1323444736.90111923,-0.00776766,-0.00453849,-0.99995953
1323444736.94952273,-0.00779593,-0.00446723,-0.99995963
1323444737.00050950,-0.00770991,-0.00445383,-0.99996036
1323444737.04951215,-0.00825671,-0.00400972,-0.99995787
1323444737.09891248,-0.00834657,-0.00424620,-0.99995615
1323444737.14886284,-0.00847342,-0.00408416,-0.99995576
1323444737.20051074,-0.00868390,-0.00401553,-0.99995423
1323444737.24850678,-0.00965645,-0.00362078,-0.99994682
1323444737.30153680,-0.00977871,-0.00322796,-0.99994698
1323444737.34863138,-0.00976821,-0.00344390,-0.99994636
1323444737.40052009,-0.00980164,-0.00329344,-0.99994654
1323444737.44153881,-0.00980413,-0.00294337,-0.99994761
1323444737.50057602,-0.00978697,-0.00291270,-0.99994786
1323444737.54867816,-0.01044102,-0.00266987,-0.99994193
1323444737.60054731,-0.01062846,-0.00264724,-0.99994001
1323444737.64853406,-0.01073392,-0.00246270,-0.99993936
1323444737.68964839,-0.01072724,-0.00233236,-0.99993974
1323444737.74978399,-0.01071380,-0.00239730,-0.99993973
1323444737.80050325,-0.01148944,-0.00193991,-0.99993211
1323444737.84853697,-0.01140853,-0.00186136,-0.99993319
1323444737.89819884,-0.01143869,-0.00188022,-0.99993281
1323444737.94082856,-0.01140965,-0.00176734,-0.99993335
1323444738.00053549,-0.01139926,-0.00173876,-0.99993351
1323444738.04860067,-0.01174778,-0.00154425,-0.99992980
1323444738.10063076,-0.01190505,-0.00140076,-0.99992815
1323444738.14995384,-0.01192230,-0.00127327,-0.99992812
1323444738.18850255,-0.01182825,-0.00109470,-0.99992944
1323444738.24853778,-0.01201430,-0.00102211,-0.99992730
1323444738.30062842,-0.01209982,-0.00073215,-0.99992653
1323444738.34849620,-0.01215295,-0.00088563,-0.99992576
1323444738.40051174,-0.01231575,-0.00075538,-0.99992387
1323444738.44159055,-0.01227949,-0.00060328,-0.99992442
1323444738.50055838,-0.01231957,-0.00032353,-0.99992406
1323444738.54974055,-0.01224019,-0.00079199,-0.99992477
1323444738.60063219,-0.01218491,-0.00096482,-0.99992530
1323444738.64851117,-0.01246181,-0.00091079,-0.99992193
1323444738.69783735,-0.01250205,-0.00067553,-0.99992162
1323444738.74863195,-0.01252066,-0.00059314,-0.99992144
1323444738.80054307,-0.01225871,-0.00106174,-0.99992430
1323444738.84854603,-0.01212984,-0.00114304,-0.99992578
1323444738.90053010,-0.01212500,-0.00102510,-0.99992596
1323444738.94966269,-0.01241475,-0.00115297,-0.99992227
1323444739.00056982,-0.01205647,-0.00089680,-0.99992692
1323444739.04942179,-0.01139171,-0.00175143,-0.99993358
1323444739.10452795,-0.01150906,-0.00184194,-0.99993207
1323444739.14857483,-0.01151294,-0.00164094,-0.99993238
1323444739.20954347,-0.01141833,-0.00167580,-0.99993340
1323444739.24866199,-0.01147075,-0.00158769,-0.99993295
1323444739.30052328,-0.01132556,-0.00186389,-0.99993413
1323444739.34955883,-0.01120190,-0.00179823,-0.99993564
1323444739.40052819,-0.01112795,-0.00170510,-0.99993663
1323444739.44856262,-0.01102530,-0.00153664,-0.99993804
1323444739.50154781,-0.01109750,-0.00140376,-0.99993744
1323444739.54854250,-0.01083019,-0.00197379,-0.99993940
1323444739.60555100,-0.01097560,-0.00182272,-0.99993811
1323444739.64854741,-0.01121618,-0.00182180,-0.99993544
1323444739.70053744,-0.01155470,-0.00178282,-0.99993165
1323444739.75048923,-0.01189123,-0.00155955,-0.99992808
1323444739.80052543,-0.01097729,-0.00204021,-0.99993767
1323444739.84854913,-0.01097584,-0.00201419,-0.99993774
1323444739.89841485,-0.01102144,-0.00208038,-0.99993710
1323444739.94849992,-0.01101302,-0.00204709,-0.99993726
1323444740.00053573,-0.01131839,-0.00205957,-0.99993382
1323444740.04852057,-0.01019414,-0.00252291,-0.99994486
1323444740.10049725,-0.01007574,-0.00225721,-0.99994669
